Valdosta Regional, GA

5:53 PM EDT on April 25, 2017 (GMT -0400)
Valdosta Regional

Weather History for KVLD - October, 2011

Change the Weather History Date:

Monday, October 10, 2011

  Actual Average Record
Temperature  
Mean Temperature 74 °F 70 °F  
Max Temperature 80 °F 82 °F 89 °F (2007)
Min Temperature 69 °F 59 °F 39 °F (2000)
Degree Days  
Heating Degree Days 0 0  
Month to date heating degree days 0  
Since 1 July heating degree days 1  
Cooling Degree Days 9 6  
Month to date cooling degree days 71  
Year to date cooling degree days 2296  
Growing Degree Days 24 (Base 50)    
Moisture  
Dew Point 68 °F    
Average Humidity 85    
Maximum Humidity 89    
Minimum Humidity 74    
Precipitation  
Precipitation 1.41 in 0.12 in 1.41 in (2011)
Month to date precipitation 1.05  
Year to date precipitation 42.72  
Sea Level Pressure  
Sea Level Pressure 29.82 in    
Wind  
Wind Speed 12 mph (NE)    
Max Wind Speed 22 mph    
Max Gust Speed 32 mph    
Visibility 6 miles    
Events Rain , Thunderstorm    
T = Trace of Precipitation, MM = Missing Value Source: NWS Daily Summary

Daily Weather History Graph

Daily Weather History Graph

Search for Another Location

Airport or City:

Trip Planner

Search our weather history database for the weather conditions in past years. The results will help you decide how hot, cold, wet, or windy it might be!

Date:

Astronomy

Oct. 10, 2011 Rise Set
Actual Time 7:32 AM EDT 7:07 PM EDT
Civil Twilight 7:07 AM EDT 7:31 PM EDT
Nautical Twilight 6:39 AM EDT 7:59 PM EDT
Astronomical Twilight 6:12 AM EDT 8:27 PM EDT
Moon 6:10 PM EDT (10/10) 6:14 AM EDT (10/10)
Length of Visible Light 12h 23m
Length of Day
11h 35m
Waxing Gibbous, 98% of the Moon is Illuminated
Oct 10
Waxing Gibbous
Oct 11
Full
Oct 19
Last Quarter
Oct 26
New
Nov 2
First Quarter

Hourly Weather History & Observations

Time (EDT) Temp. Dew Point Humidity Pressure Visibility Wind Dir Wind Speed Gust Speed Precip Events Conditions
12:46 AM 71.6 °F 64.4 °F 78% 29.97 in 10.0 mi ENE 9.2 mph 23.0 mph 0.00 in Rain Light Rain
12:53 AM 72.0 °F 64.9 °F 78% 29.99 in 10.0 mi NNE 10.4 mph 18.4 mph 0.00 in   Overcast
1:27 AM 71.6 °F 64.4 °F 78% 29.95 in 10.0 mi NNE 10.4 mph - N/A   Overcast
1:40 AM 71.6 °F 64.4 °F 78% 29.95 in 10.0 mi NNE 12.7 mph - N/A   Overcast
1:53 AM 71.1 °F 64.9 °F 81% 29.96 in 10.0 mi NNE 11.5 mph - N/A   Overcast
2:11 AM 71.6 °F 64.4 °F 78% 29.93 in 10.0 mi NNE 12.7 mph - N/A   Overcast
2:39 AM 71.6 °F 64.4 °F 78% 29.92 in 10.0 mi NNE 12.7 mph - N/A   Overcast
2:53 AM 71.1 °F 66.0 °F 84% 29.93 in 3.0 mi NNE 13.8 mph - 0.05 in Rain Heavy Rain
3:16 AM 69.8 °F 66.2 °F 88% 29.90 in 10.0 mi NNE 13.8 mph - 0.00 in   Mostly Cloudy
3:41 AM 69.8 °F 66.2 °F 88% 29.88 in 3.0 mi NNE 11.5 mph - 0.07 in Rain Rain
3:53 AM 70.0 °F 66.0 °F 87% 29.90 in 5.0 mi NNE 11.5 mph 20.7 mph 0.09 in Rain Light Rain
4:05 AM 69.8 °F 66.2 °F 88% 29.88 in 5.0 mi NNE 13.8 mph - 0.01 in Rain Light Rain
4:18 AM 69.8 °F 66.2 °F 88% 29.87 in 6.0 mi NNE 12.7 mph 20.7 mph 0.02 in Rain Light Rain
4:53 AM 70.0 °F 66.0 °F 87% 29.88 in 9.0 mi NNE 11.5 mph - 0.03 in Rain Light Rain
5:23 AM 71.6 °F 66.2 °F 83% 29.85 in 10.0 mi NNE 13.8 mph - 0.00 in Rain Light Rain
5:32 AM 71.6 °F 66.2 °F 83% 29.84 in 10.0 mi NNE 13.8 mph - 0.00 in   Overcast
5:50 AM 71.6 °F 66.2 °F 83% 29.83 in 6.0 mi NNE 16.1 mph 23.0 mph 0.01 in Rain Light Rain
5:53 AM 71.1 °F 66.0 °F 84% 29.85 in 3.0 mi NNE 12.7 mph 23.0 mph 0.07 in Rain Heavy Rain
6:00 AM 69.8 °F 66.2 °F 88% 29.83 in 2.5 mi NNE 15.0 mph - 0.02 in Rain Rain
6:08 AM 71.6 °F 66.2 °F 83% 29.82 in 8.0 mi NNE 17.3 mph 25.3 mph 0.02 in Rain Light Rain
6:12 AM 71.6 °F 66.2 °F 83% 29.82 in 9.0 mi NNE 15.0 mph 25.3 mph 0.02 in Rain Light Rain
6:19 AM 71.6 °F 66.2 °F 83% 29.82 in 10.0 mi NNE 13.8 mph 23.0 mph 0.02 in   Overcast
6:53 AM 71.1 °F 66.0 °F 84% 29.84 in 8.0 mi NNE 17.3 mph 24.2 mph 0.02 in Rain Light Rain
7:09 AM 71.6 °F 66.2 °F 83% 29.82 in 5.0 mi NNE 17.3 mph 25.3 mph 0.01 in Rain Light Rain
7:53 AM 71.1 °F 66.9 °F 87% 29.84 in 1.8 mi NNE 19.6 mph 25.3 mph 0.16 in Rain Heavy Rain
7:59 AM 71.6 °F 66.2 °F 83% 29.81 in 3.0 mi NNE 18.4 mph 26.5 mph 0.02 in Rain Heavy Rain
8:02 AM 71.6 °F 66.2 °F 83% 29.81 in 2.5 mi NNE 19.6 mph 28.8 mph 0.02 in Rain Rain
8:53 AM 71.1 °F 66.0 °F 84% 29.81 in 2.5 mi NNE 18.4 mph 27.6 mph 0.05 in Rain Light Rain
8:59 AM 71.6 °F 66.2 °F 83% 29.79 in 3.0 mi NNE 19.6 mph 28.8 mph 0.00 in Rain Light Rain
9:06 AM 71.6 °F 66.2 °F 83% 29.79 in 3.0 mi NNE 21.9 mph 32.2 mph 0.00 in Rain Light Rain
9:29 AM 71.6 °F 66.2 °F 83% 29.78 in 3.0 mi NNE 20.7 mph 32.2 mph 0.00 in Rain Light Rain
9:53 AM 71.1 °F 66.9 °F 87% 29.81 in 3.0 mi NNE 17.3 mph 27.6 mph 0.00 in Rain Light Rain
9:56 AM 71.6 °F 66.2 °F 83% 29.79 in 2.0 mi NNE 18.4 mph 27.6 mph N/A Rain Light Rain
10:28 AM 71.6 °F 68.0 °F 88% 29.79 in 2.0 mi NE 18.4 mph 28.8 mph 0.00 in Rain Light Rain
10:53 AM 73.0 °F 68.0 °F 84% 29.81 in 2.0 mi NNE 17.3 mph 24.2 mph 0.02 in Rain Light Rain
11:53 AM 73.9 °F 69.1 °F 85% 29.80 in 2.5 mi NE 12.7 mph 23.0 mph 0.01 in Rain Light Rain
12:00 PM 73.4 °F 69.8 °F 88% 29.78 in 4.0 mi NNE 13.8 mph 18.4 mph 0.00 in Rain Light Rain
12:34 PM 75.2 °F 69.8 °F 83% 29.77 in 2.0 mi NE 15.0 mph 24.2 mph 0.00 in Rain Light Rain
12:53 PM 73.9 °F 70.0 °F 87% 29.78 in 1.5 mi NE 15.0 mph 23.0 mph 0.03 in Rain Light Rain
1:53 PM 77.0 °F 72.0 °F 84% 29.76 in 1.5 mi ENE 11.5 mph - 0.07 in   Haze
2:00 PM 77.0 °F 73.4 °F 89% 29.74 in 3.0 mi East 11.5 mph 17.3 mph N/A   Overcast
2:53 PM 79.0 °F 70.0 °F 74% 29.76 in 3.0 mi SE 12.7 mph 21.9 mph 0.00 in Rain Light Rain
2:55 PM 78.8 °F 69.8 °F 74% 29.74 in 10.0 mi ESE 11.5 mph 21.9 mph 0.00 in Rain Light Rain
3:02 PM 78.8 °F 69.8 °F 74% 29.75 in 7.0 mi ESE 12.7 mph 23.0 mph 0.01 in Rain Rain
3:53 PM 73.9 °F 70.0 °F 87% 29.77 in 4.0 mi ESE 10.4 mph - 0.19 in Rain Heavy Rain
4:53 PM 73.9 °F 69.1 °F 85% 29.77 in 10.0 mi ESE 8.1 mph - 0.09 in Rain Light Rain
5:10 PM 73.4 °F 69.8 °F 88% 29.76 in 10.0 mi SE 9.2 mph - N/A Rain Light Rain
5:53 PM 73.9 °F 70.0 °F 87% 29.77 in 10.0 mi ESE 6.9 mph - 0.00 in   Mostly Cloudy
6:39 PM 73.4 °F 69.8 °F 88% 29.76 in 10.0 mi East 4.6 mph - N/A   Overcast
6:53 PM 73.9 °F 70.0 °F 87% 29.78 in 10.0 mi East 4.6 mph - N/A   Overcast
7:11 PM 73.4 °F 69.8 °F 88% 29.77 in 10.0 mi East 4.6 mph - N/A   Overcast
7:53 PM 73.9 °F 70.0 °F 87% 29.80 in 7.0 mi East 5.8 mph - 0.01 in Rain Rain
8:01 PM 73.4 °F 69.8 °F 88% 29.78 in 6.0 mi ENE 5.8 mph - 0.01 in Rain Rain
8:31 PM 73.4 °F 69.8 °F 88% 29.79 in 2.5 mi East 6.9 mph - 0.20 in Rain Heavy Rain
8:38 PM 73.4 °F 69.8 °F 88% 29.78 in 2.0 mi NE 6.9 mph - 0.27 in Rain Heavy Rain
8:42 PM 73.4 °F 69.8 °F 88% 29.78 in 3.0 mi NE 8.1 mph - 0.28 in Rain Heavy Rain
8:53 PM 73.9 °F 70.0 °F 87% 29.81 in 10.0 mi East 4.6 mph - 0.28 in Rain Light Rain
9:21 PM 73.4 °F 69.8 °F 88% 29.80 in 8.0 mi Variable 3.5 mph - 0.01 in Rain Light Rain
9:53 PM 73.9 °F 70.0 °F 87% 29.83 in 6.0 mi SSE 9.2 mph - 0.04 in Rain Rain
10:24 PM 73.4 °F 69.8 °F 88% 29.81 in 2.5 mi NNE 12.7 mph - 0.18 in Rain Heavy Rain
10:35 PM 73.4 °F 69.8 °F 88% 29.81 in 10.0 mi NE 4.6 mph - 0.19 in Rain Light Rain
10:53 PM 73.0 °F 69.1 °F 87% 29.83 in 10.0 mi ENE 3.5 mph - 0.19 in   Overcast
11:12 PM 73.4 °F 69.8 °F 88% 29.82 in 10.0 mi NE 5.8 mph - N/A Thunderstorm Overcast
11:27 PM 73.4 °F 69.8 °F 88% 29.82 in 8.0 mi NE 9.2 mph - 0.00 in Rain Light Rain
11:53 PM 73.0 °F 68.0 °F 84% 29.83 in 7.0 mi NE 5.8 mph - 0.01 in Rain Light Rain